Regional Weather Roundup
Issued by NWS Wakefield, VA

Home | Current Version | Previous Version | Graphics & Text | Print | Product List | Glossary On
Versions: 1 2 3 4 5 6 7 8 9 10 11 12 13 14 15 16 17 18 19 20 21 22 23 24 25 26 27
000
ASUS41 KAKQ 211815
RWRAKQ

REGIONAL WEATHER ROUNDUP
NATIONAL WEATHER SERVICE WAKEFIELD VA
200 PM EDT FRI JUL 21 2017

Note: "fair" indicates few or no clouds below 12,000 feet with no
significant weather and/or obstructions to visibility. * = Denotes
station may not report precipitation (e.g., rain,snow,etc.),
thunder or fog.

VAZ042-051-052>054-056-211900-
NORTHERN VIRGINIA

CITY           SKY/WX    TMP DP  RH WIND       PRES   REMARKS
WASH NATIONAL  PTSUNNY   93  73  52 S9        29.93F HX 102
DULLES         PTSUNNY   91  70  49 SW6       29.95F HX  96
FORT BELVOIR   MOSUNNY   94  70  45 NW5       29.93F HX  99
QUANTICO       PTSUNNY   91  75  59 S8        29.94F HX 101
FREDERICKSBRG* MOSUNNY   92  71  49 E3        29.94S HX  99
STAFFORD*      MOSUNNY   94  69  44 NW3       29.99F HX  99
WARRENTON      MOSUNNY   95  66  37 W6        29.95F HX  98
CULPEPER*      MOSUNNY   93  73  50 SW3       29.96F HX 102
MANASSAS*      CLOUDY    92  72  51 W8        29.95F HX  99
LEESBURG*      CLOUDY    93  73  52 CALM      29.96F HX 102
WINCHESTER     PTSUNNY   86  73  66 E3        29.96F
FRONT ROYAL*   PTCLDY    91  70  49 S7        29.95F HX  97
LURAY*         PTCLDY    90  72  55 W6        29.98F HX  96
$$

VAZ048-049-060>072-079>083-211900-
CENTRAL AND SOUTH CENTRAL VIRGINIA

CITY           SKY/WX    TMP DP  RH WIND       PRES   REMARKS
RICHMOND       CLOUDY    93  70  46 VRB3      29.95F HX  99
CHESTERFIELD*  FAIR      96  70  42 VRB3      29.96F HX 102
PETERSBURG*    SUNNY     93  67  42 CALM      29.97S HX  97
HANOVER        PTSUNNY   93  71  48 CALM      29.96F HX 100
TAPPAHANNOCK*  MOSUNNY   95  53  23 NW6       29.95F
QUINTON*       FAIR      94  71  47 S3        29.95F HX 100
CHARLOTTSVILLE SUNNY     96  68  39 VRB5      29.96F HX 101
GORDONSVILLE*  PTCLDY    96  69  41 SW6       29.95F HX 101
ORANGE*        MOSUNNY   93  66  40 CALM      29.95F HX  96
LOUISA*        MOSUNNY   93  64  38 NW5       29.96F HX  95
BUMPASS*       FAIR      94  70  45 W5        29.96F HX 100
FARMVILLE*     SUNNY     96  55  25 SW7       29.96F
CREWE*         FAIR      94  59  30 CALM      29.97S
FORT PICKETT*  FAIR     N/A N/A N/A W6        29.97S
CHASE CITY*    FAIR      94  67  40 W7        29.99S HX  97
CLARKSVILLE*   FAIR      91  70  49 NW6       29.98F HX  97
SOUTH HILL*    MOSUNNY   92  71  50 W5        30.03F HX  98
LAWRENCEVILLE* FAIR      95  67  39 W7        29.97F HX  98
EMPORIA*       HVY RAIN  88  75  66 W15G22    29.98S HX  97
$$

VAZ088>098-211900-
SOUTHEAST VIRGINIA

CITY           SKY/WX    TMP DP  RH WIND       PRES   REMARKS
NORFOLK        CLOUDY    93  73  52 NE7       29.95F HX 102
VIRGINIA BEACH CLOUDY    88  77  69 E8        29.94F HX 100
NORFOLK NAVAL  PTSUNNY   94  70  45 VRB5      29.96F HX 100
WEST POINT*    SUNNY     97  65  35 CALM      29.96S HX  99
SALUDA*        FAIR      89  78  69 E5        29.95S HX 103
NEWPORT NEWS   SUNNY     93  71  48 VRB6      29.94F HX 100
LANGLEY AFB    PTSUNNY   91  72  54 NE8       29.95F HX  98
FORT EUSTIS    MOSUNNY   94  75  54 S6        29.93F HX 106
WILLIAMSBURG*  SUNNY     99  73  44 S3        29.96S HX 109
HR EXEC AP*    MOCLDY    91  79  66 SW7         N/A  HX 107
FRANKLIN*      PTSUNNY   90  77  66 CALM      29.96F HX 102
US460-WAKEFLD  SUNNY     92  74  55 E6        29.95F HX 101
$$

VAZ020-022-025-037-045-211900-
WEST CENTRAL AND SOUTHWEST VIRGINIA

CITY           SKY/WX    TMP DP  RH WIND       PRES   REMARKS
STAUNTON*      SUNNY     91  69  48 S10       30.02F HX  96
WAYNESBORO*    CLEAR     89  72  56 W5        30.03F HX  96
HOT SPRINGS VA PTSUNNY   79  61  53 W10       30.20F
LYNCHBURG      CLOUDY    91  72  53 NE7       30.02F HX  98
DANVILLE       SUNNY     92  75  57 NW3       30.00F HX 103
SOUTH BOSTON*  FAIR      93  69  46 NW3       29.99S HX  98
MARTINSVILLE   LGT RAIN  91  72  54 N3        30.05F HX  98
ROANOKE        PTSUNNY   91  71  51 S6        30.04F HX  97
BLACKSBURG     PTSUNNY   86  69  55 NW8G16    30.13F
DUBLIN*        CLOUDY    91  59  34 W9G20     30.11F
MARION*        LGT RAIN  74  69  83 W5        30.19R
HILLSVILLE*    CLOUDY    85  62  46 CALM      30.13F
RICHLANDS*     FAIR      83  68  60 NW8       30.18F
WISE*          PTSUNNY   84  66  54 NW10      30.19F
ABINGDON*      CLOUDY    85  71  61 N16G24    30.13F
$$

MDZ021>025-VAZ099-100-211900-
SOUTHERN MARYLAND AND THE DELMARVA PENINSULA

CITY           SKY/WX    TMP DP  RH WIND       PRES   REMARKS
PATUXENT RIVER CLOUDY    91  72  53 NW7       29.94F HX  98
BAY BRIDGE APT NOT AVBL
LEONARDTOWN    CLOUDY   N/A N/A N/A N3        29.96F
DOVER          MOSUNNY   90  80  72 CALM      29.91F HX 107
GEORGETOWN     MOSUNNY   91  72  53 W3        29.93F HX  98
EASTON         PTSUNNY   93  68  43 NW5       29.98S HX  97
CAMBRIDGE      SUNNY     91  72  52 VRB5      29.93F HX  98
SALISBURY      MOSUNNY   93  73  52 SW3       29.93S HX 102
OCEAN CITY     SUNNY     85  75  72 SE8       29.94S
WALLOPS ISLAND PTSUNNY   91  78  65 S8        29.93F HX 106
ACCOMACK*      MOSUNNY   91  73  55 NW5       29.95S HX 100
$$

NCZ012>017-030>032-211900-
NORTH CENTRAL AND EASTERN NORTH CAROLINA

CITY           SKY/WX    TMP DP  RH WIND       PRES   REMARKS
ROANOKE RAPIDS FAIR      91  72  52 W5        29.97F HX  98
RALEIGH        PTSUNNY   97  69  40 SW16      30.00F HX 103
ELIZABETH CITY MOSUNNY   92  79  65 S10       29.96F HX 108
AHOSKIE*         N/A     89  79  72 CALM      29.96F HX 105
EDENTON*       MOSUNNY   93  78  61 CALM      29.97F HX 108
CURRITUCK*     MOSUNNY   93  75  55 S6        29.96F HX 104
KILL DEVIL HLS MOSUNNY   91  75  59 CALM      29.96F HX 101
MANTEO         MOSUNNY   88  80  75 S9        29.98F HX 104
CAPE HATTERAS  SUNNY     86  77  74 SW12      30.00F HX  97
TARBORO*       NOT AVBL
GOLDSBORO      MOSUNNY   95  76  53 SW9       29.97F HX 107
WASHINGTON     MOSUNNY   93  74  54 SW7       29.98F HX 104
GREENVILLE     SUNNY     95  73  49 SW8       29.99F HX 105
NEW BERN       SUNNY     94  76  55 SW7       30.00F HX 106
WILMINGTON     MOSUNNY   92  72  51 SW6       30.01F HX  99
$$

VAZ048-211900-
ELSEWHERE

CITY           SKY/WX    TMP DP  RH WIND       PRES   REMARKS
HARRISBURG PA  CLOUDY    89  72  56 CALM      29.93F HX  96
BALTIMORE      CLOUDY    90  71  53 S10       29.92F HX  96
ANNAPOLIS      PTSUNNY   88  74  63 SE8       29.93F HX  96
ANDREWS AFB    MOSUNNY   92  70  48 SW3       29.93F HX  98
PHILADELPHIA   CLOUDY    92  67  43 NW9G16    29.91F HX  95
HENDERSON NC   MOSUNNY   91  67  45 W5        29.99F
GREENSBORO     CLOUDY    94  66  39 CALM      30.02F HX  97
ROCKY MOUNT    SUNNY     93  76  57 VRB5      29.98F HX 105
$$

VAZ100-211900-
MARINE

STATION/POSITION TIME  TEMP    WIND        PRES    WAVE   SWELL
                       AIR SEA DIR/SP/G            HT/PER HT/PER
                 (UTC) (F)     (DEG/KT/KT) (MB)    (FT/S) (FT/S)
BRANDYWINE LGT   1748           CALM  /  2   N/A
CAPE MAY NJ      1748   84 78  190/  7/  9 1013.3F
LEWES DE         1748   82 74   50/  7/  8 1013.7R
15NM E FENWICK I 1750   78 77  330/  4/  4 1014.3F   2/ 8   2/ 8
OCEAN-CITY-INLET 1748   84 79  110/  4/  6 1014.2F
WACHAPREAGUE VA  1748   90 87  170/  5/  6 1013.7F
THOMAS POINT MD  1800   86 83  150/  4/  4   N/A
GOOSES REEF MD   1800   88 89  340/  2/  2 1015.0    0
COVE POINT MD    1748   86     340/  5/  6 1014.7F
SOLOMONS ISLAND  1748           70/  2/  5   N/A
BISHOPS HEAD MD  1748   85 87  260/  7/  8 1014.2F
PINEY POINT MD   1748          310/  6/  6   N/A
POTOMAC MD       1800   86 87  130/  2/  4 1013.0    0
CAMBRIDGE MD     1748   93 89              1014.7F
LEWISETTA VA     1748   86 84  100/  4/  5 1013.9F
RAPPAHANNOCK LGT 1748          330/  4/  5 1015.0F
STINGRAY PT      1750   86      80/  4/  6 1015.1F
YORK RVR RNG VA  1748   86     140/  4/  5 1014.6F
YORKTOWN VA      1748   86 84   80/ 11/ 12 1013.8F
JAMESTOWN VA     1800      88  160/  4/  6   N/A     0
DOMINION TERM VA 1748   86     120/  6/  7 1014.5F
KIPTOPEKE VA     1748          250/  4/  5   N/A
CHES BAY BRIDGE  1748   86 82  350/  5/  6 1014.2F
CAPE HENRY VA    1748   85      50/  3/  3   N/A
WILLOUBY STN VA  1748   86      50/  2/  3 1014.5F
S CRANEY ISL VA  1748   88      30/  4/  4 1014.2F
CAPE HENRY BUOY  1800      78                N/A     2/11   2/11
1ST LANDING BUOY 1800   86 82              1014.1    0
64NM E OF VA BCH 1750   80 80  210/ 12/ 16 1015.2F   2/11   2/11
DUCK PIER NC     1748   86 58  160/  8/ 10 1014.4F
44056 DUCK FRF   1800      71                N/A     2/14   2/14
OREGON INLET NC  1736   83 84  190/ 15/ 16 1015.2F
HATTERAS NC      1748          210/  9/ 13   N/A
DIAMOND SHLS NC  1750   83 85  220/ 16/ 17 1016.1F   3/ 8   2/ 8
CAPE LOOKOUT NC  1800   84     230/ 11/ 14 1016.2F
$$




USA.gov is the U.S. government's official web portal to all federal, state and local government web resources and services.